TKJ9BT LROP-LTAC

Flight info

Callsign TKJ9BT
Flight time 1h 15m
Altitude 37000
Route IDARU DCT EFJAS DCT MAXOV DCT MATEL DCT ARTAT UL601 SALGO/N0454F380 UL615 YAVRU
Aircraft A320/M-SDE3FGHIRWY/LB1

Departure

Time 2026-05-05 18:08
Airport Bucharest Henri Coandă International Airport (LROP)

Arrival

Time 2026-05-05 19:23
Airport Esenboğa International Airport (LTAC)
Time Latitude Longitude Altitude Speed Heading
2026-05-05 17:41 44.57015 26.08080 320 ft 0 kts 354°
2026-05-05 17:53 44.57004 26.08081 319 ft 4 kts 354°
2026-05-05 17:53 44.56977 26.08084 319 ft 4 kts 359°
2026-05-05 17:53 44.56951 26.08082 318 ft 4 kts 19°
2026-05-05 17:54 44.56934 26.08066 319 ft 2 kts 82°
2026-05-05 17:54 44.56934 26.08063 319 ft 0 kts 84°
2026-05-05 17:57 44.56935 26.08076 318 ft 3 kts 84°
2026-05-05 17:57 44.56938 26.08113 320 ft 5 kts 84°
2026-05-05 17:57 44.56942 26.08176 320 ft 8 kts 84°
2026-05-05 17:57 44.56949 26.08265 320 ft 10 kts 84°
2026-05-05 17:58 44.56958 26.08351 320 ft 9 kts 68°
2026-05-05 17:58 44.57013 26.08375 320 ft 10 kts 353°
2026-05-05 17:58 44.57091 26.08373 320 ft 12 kts 359°
2026-05-05 17:58 44.57174 26.08364 321 ft 11 kts 354°
2026-05-05 17:59 44.57228 26.08402 320 ft 10 kts 84°
2026-05-05 17:59 44.57255 26.08496 321 ft 11 kts 16°
2026-05-05 17:59 44.57343 26.08489 321 ft 12 kts 354°
2026-05-05 17:59 44.57431 26.08476 319 ft 14 kts 354°
2026-05-05 18:00 44.57500 26.08562 319 ft 16 kts 84°
2026-05-05 18:00 44.57511 26.08710 319 ft 15 kts 84°
2026-05-05 18:00 44.57523 26.08866 321 ft 18 kts 84°
2026-05-05 18:00 44.57536 26.09048 320 ft 20 kts 84°
2026-05-05 18:01 44.57551 26.09245 320 ft 22 kts 84°
2026-05-05 18:01 44.57565 26.09441 320 ft 21 kts 84°
2026-05-05 18:01 44.57580 26.09633 321 ft 21 kts 83°
2026-05-05 18:01 44.57597 26.09837 319 ft 21 kts 84°
2026-05-05 18:02 44.57612 26.10035 321 ft 19 kts 84°
2026-05-05 18:02 44.57624 26.10202 321 ft 15 kts 84°
2026-05-05 18:02 44.57636 26.10361 321 ft 18 kts 84°
2026-05-05 18:02 44.57650 26.10545 321 ft 20 kts 84°
2026-05-05 18:03 44.57664 26.10740 321 ft 21 kts 84°
2026-05-05 18:03 44.57680 26.10946 321 ft 22 kts 84°
2026-05-05 18:03 44.57696 26.11158 320 ft 22 kts 83°
2026-05-05 18:03 44.57711 26.11348 321 ft 21 kts 84°
2026-05-05 18:04 44.57727 26.11551 320 ft 21 kts 84°
2026-05-05 18:04 44.57741 26.11752 321 ft 19 kts 84°
2026-05-05 18:04 44.57755 26.11944 321 ft 20 kts 84°
2026-05-05 18:04 44.57770 26.12141 320 ft 19 kts 84°
2026-05-05 18:05 44.57784 26.12314 321 ft 17 kts 83°
2026-05-05 18:05 44.57796 26.12468 321 ft 17 kts 84°
2026-05-05 18:05 44.57809 26.12634 321 ft 20 kts 84°
2026-05-05 18:05 44.57820 26.12773 321 ft 9 kts 84°
2026-05-05 18:06 44.57845 26.12859 321 ft 11 kts 35°
2026-05-05 18:06 44.57895 26.12848 320 ft 12 kts 323°
2026-05-05 18:06 44.57985 26.12735 319 ft 13 kts 297°
2026-05-05 18:06 44.57987 26.12695 320 ft 0 kts 263°
2026-05-05 18:07 44.57975 26.12545 321 ft 49 kts 264°
2026-05-05 18:07 44.57914 26.11737 322 ft 115 kts 264°
2026-05-05 18:07 44.57810 26.10374 321 ft 162 kts 264°
2026-05-05 18:07 44.57718 26.09079 574 ft 175 kts 263°
2026-05-05 18:08 44.57594 26.07412 1281 ft 171 kts 262°
2026-05-05 18:08 44.57453 26.05729 1992 ft 173 kts 261°
2026-05-05 18:08 44.57298 26.04032 2592 ft 183 kts 262°
2026-05-05 18:08 44.57450 26.02209 3002 ft 200 kts 292°
2026-05-05 18:09 44.58320 26.00535 3380 ft 224 kts 317°
2026-05-05 18:09 44.59650 25.99334 4019 ft 238 kts 337°
2026-05-05 18:09 44.61293 25.98788 4792 ft 249 kts 354°
2026-05-05 18:09 44.63089 25.98648 5505 ft 263 kts 357°
2026-05-05 18:10 44.64906 25.98557 6424 ft 266 kts 358°
2026-05-05 18:10 44.66785 25.98477 7390 ft 267 kts 358°
2026-05-05 18:10 44.68652 25.98398 8351 ft 268 kts 358°
2026-05-05 18:10 44.70525 25.98316 9309 ft 269 kts 359°
2026-05-05 18:11 44.72359 25.98596 10175 ft 271 kts 17°
2026-05-05 18:11 44.74054 25.99868 10996 ft 276 kts 38°
2026-05-05 18:11 44.75312 26.01979 11376 ft 301 kts 60°
2026-05-05 18:11 44.75906 26.04937 11573 ft 330 kts 80°
2026-05-05 18:12 44.76137 26.08186 11976 ft 343 kts 81°
2026-05-05 18:12 44.76375 26.11601 12676 ft 347 kts 81°
2026-05-05 18:12 44.76614 26.14997 13444 ft 350 kts 81°
2026-05-05 18:12 44.76860 26.18409 14177 ft 352 kts 81°
2026-05-05 18:13 44.77113 26.21857 14809 ft 355 kts 81°
2026-05-05 18:13 44.77371 26.25322 15406 ft 359 kts 81°
2026-05-05 18:13 44.77636 26.28865 15992 ft 363 kts 81°
2026-05-05 18:13 44.77898 26.32414 16578 ft 367 kts 81°
2026-05-05 18:14 44.78156 26.35962 17186 ft 370 kts 82°
2026-05-05 18:14 44.78420 26.39580 17788 ft 374 kts 82°
2026-05-05 18:14 44.78689 26.43244 18379 ft 378 kts 82°
2026-05-05 18:14 44.78959 26.46947 18909 ft 381 kts 82°
2026-05-05 18:15 44.79228 26.50681 19454 ft 385 kts 82°
2026-05-05 18:15 44.79494 26.54453 20006 ft 388 kts 82°
2026-05-05 18:15 44.79762 26.58258 20558 ft 391 kts 82°
2026-05-05 18:15 44.79836 26.62114 21065 ft 397 kts 91°
2026-05-05 18:16 44.79385 26.65965 21553 ft 404 kts 103°
2026-05-05 18:16 44.78409 26.69649 22024 ft 410 kts 114°
2026-05-05 18:16 44.76832 26.73090 22523 ft 418 kts 128°
2026-05-05 18:16 44.74734 26.75968 23008 ft 423 kts 135°
2026-05-05 18:17 44.72580 26.78739 23491 ft 426 kts 135°
2026-05-05 18:17 44.70379 26.81548 23908 ft 429 kts 135°
2026-05-05 18:17 44.68148 26.84377 24311 ft 431 kts 135°
2026-05-05 18:17 44.65908 26.87204 24699 ft 434 kts 135°
2026-05-05 18:18 44.63658 26.90035 25088 ft 437 kts 136°
2026-05-05 18:18 44.61385 26.92890 25459 ft 439 kts 136°
2026-05-05 18:18 44.59099 26.95762 25850 ft 442 kts 136°
2026-05-05 18:18 44.56805 26.98648 26231 ft 444 kts 136°
2026-05-05 18:19 44.54500 27.01549 26622 ft 447 kts 136°
2026-05-05 18:19 44.52178 27.04473 27007 ft 450 kts 136°
2026-05-05 18:19 44.49850 27.07404 27395 ft 452 kts 136°
2026-05-05 18:19 44.47500 27.10358 27772 ft 455 kts 136°
2026-05-05 18:20 44.45134 27.13323 28113 ft 458 kts 136°
2026-05-05 18:20 44.42746 27.16308 28453 ft 461 kts 136°
2026-05-05 18:20 44.40344 27.19308 28826 ft 464 kts 136°
2026-05-05 18:20 44.37932 27.22314 29229 ft 465 kts 136°
2026-05-05 18:21 44.35506 27.25333 29622 ft 467 kts 136°
2026-05-05 18:21 44.33082 27.28349 30148 ft 466 kts 136°
2026-05-05 18:21 44.30664 27.31357 30608 ft 465 kts 136°
2026-05-05 18:21 44.28250 27.34353 31069 ft 464 kts 137°
2026-05-05 18:22 44.25841 27.37338 31509 ft 463 kts 137°
2026-05-05 18:22 44.23436 27.40318 31957 ft 462 kts 137°
2026-05-05 18:22 44.21033 27.43293 32430 ft 461 kts 137°
2026-05-05 18:22 44.18673 27.46216 32946 ft 459 kts 137°
2026-05-05 18:23 44.16292 27.49165 33453 ft 457 kts 137°
2026-05-05 18:23 44.13916 27.52099 33908 ft 456 kts 137°
2026-05-05 18:23 44.11545 27.55023 34325 ft 456 kts 137°
2026-05-05 18:23 44.09175 27.57943 34704 ft 456 kts 137°
2026-05-05 18:24 44.06795 27.60872 35044 ft 456 kts 137°
2026-05-05 18:24 44.04414 27.63796 35380 ft 457 kts 137°
2026-05-05 18:24 44.02000 27.66760 35757 ft 456 kts 137°
2026-05-05 18:24 43.99654 27.69633 36099 ft 456 kts 137°
2026-05-05 18:25 43.97272 27.72550 36426 ft 456 kts 137°
2026-05-05 18:25 43.96468 27.73533 36527 ft 457 kts 137°
2026-05-05 18:25 43.92507 27.78376 36977 ft 458 kts 137°
2026-05-05 18:26 43.87700 27.84250 37054 ft 462 kts 137°
2026-05-05 18:26 43.82873 27.90119 37055 ft 463 kts 137°
2026-05-05 18:27 43.78021 27.96011 37060 ft 463 kts 137°
2026-05-05 18:27 43.73167 28.01893 37061 ft 463 kts 137°
2026-05-05 18:28 43.65894 28.10693 37072 ft 463 kts 137°
2026-05-05 18:28 43.61034 28.16546 37075 ft 464 kts 137°
2026-05-05 18:29 43.56184 28.22363 37080 ft 464 kts 138°
2026-05-05 18:29 43.51316 28.28189 37081 ft 464 kts 138°
2026-05-05 18:30 43.47255 28.33053 37093 ft 464 kts 137°
2026-05-05 18:30 43.42375 28.38885 37101 ft 465 kts 138°
2026-05-05 18:31 43.37454 28.44752 37102 ft 465 kts 138°
2026-05-05 18:31 43.32598 28.50535 37101 ft 465 kts 138°
2026-05-05 18:32 43.27702 28.56346 37110 ft 465 kts 137°
2026-05-05 18:32 43.22799 28.62154 37102 ft 465 kts 138°
2026-05-05 18:33 43.17885 28.67962 37096 ft 465 kts 138°
2026-05-05 18:33 43.12972 28.73750 37099 ft 466 kts 138°
2026-05-05 18:34 43.08056 28.79533 37107 ft 466 kts 138°
2026-05-05 18:34 43.03144 28.85294 37104 ft 466 kts 138°
2026-05-05 18:35 42.98214 28.91052 37100 ft 466 kts 138°
2026-05-05 18:35 42.93275 28.96830 37108 ft 466 kts 137°
2026-05-05 18:36 42.88342 29.02589 37100 ft 466 kts 138°
2026-05-05 18:36 42.83425 29.08306 37100 ft 467 kts 138°
2026-05-05 18:37 42.78482 29.14040 37099 ft 467 kts 138°
2026-05-05 18:37 42.73538 29.19784 37104 ft 467 kts 138°
2026-05-05 18:38 42.68596 29.25502 37096 ft 467 kts 138°
2026-05-05 18:38 42.63638 29.31208 37089 ft 467 kts 138°
2026-05-05 18:39 42.58680 29.36909 37101 ft 467 kts 138°
2026-05-05 18:39 42.53719 29.42610 37095 ft 468 kts 138°
2026-05-05 18:40 42.48753 29.48312 37095 ft 468 kts 138°
2026-05-05 18:40 42.43773 29.53996 37094 ft 468 kts 138°
2026-05-05 18:41 42.38785 29.59677 37103 ft 468 kts 138°
2026-05-05 18:41 42.33821 29.65372 37093 ft 468 kts 137°
2026-05-05 18:42 42.28969 29.71168 37088 ft 469 kts 136°
2026-05-05 18:42 42.24111 29.77040 37104 ft 469 kts 136°
2026-05-05 18:43 42.19199 29.82926 37102 ft 469 kts 137°
2026-05-05 18:43 42.14296 29.88735 37092 ft 469 kts 137°
2026-05-05 18:44 42.09408 29.94486 37088 ft 470 kts 137°
2026-05-05 18:44 42.04488 30.00282 37094 ft 470 kts 137°
2026-05-05 18:45 41.99574 30.06079 37093 ft 470 kts 137°
2026-05-05 18:45 41.94655 30.11876 37085 ft 470 kts 137°
2026-05-05 18:46 41.89739 30.17651 37095 ft 471 kts 137°
2026-05-05 18:46 41.84804 30.23425 37090 ft 471 kts 137°
2026-05-05 18:47 41.79896 30.29166 37091 ft 471 kts 137°
2026-05-05 18:47 41.74945 30.34939 37077 ft 471 kts 137°
2026-05-05 18:48 41.69956 30.40719 37086 ft 472 kts 137°
2026-05-05 18:48 41.64993 30.46472 37087 ft 472 kts 137°
2026-05-05 18:49 41.60060 30.52208 37080 ft 473 kts 137°
2026-05-05 18:49 41.55131 30.58028 37092 ft 473 kts 137°
2026-05-05 18:50 41.50222 30.63848 37092 ft 473 kts 137°
2026-05-05 18:50 41.45291 30.69661 37075 ft 473 kts 137°
2026-05-05 18:51 41.40694 30.75898 37079 ft 471 kts 128°
2026-05-05 18:51 41.36458 30.82557 37090 ft 471 kts 128°
2026-05-05 18:52 41.32207 30.89215 37088 ft 472 kts 129°
2026-05-05 18:52 41.27951 30.95859 37091 ft 472 kts 129°
2026-05-05 18:53 41.23690 31.02508 37103 ft 472 kts 129°
2026-05-05 18:53 41.19444 31.09145 37084 ft 472 kts 129°
2026-05-05 18:54 41.15198 31.15795 37107 ft 472 kts 129°
2026-05-05 18:54 41.10949 31.22433 37089 ft 472 kts 129°
2026-05-05 18:55 41.06692 31.29067 37092 ft 472 kts 129°
2026-05-05 18:55 41.02419 31.35699 37096 ft 473 kts 129°
2026-05-05 18:56 40.98149 31.42304 37109 ft 473 kts 129°
2026-05-05 18:56 40.93864 31.48929 37093 ft 473 kts 129°
2026-05-05 18:57 40.89587 31.55542 37091 ft 473 kts 129°
2026-05-05 18:57 40.85303 31.62158 37093 ft 473 kts 129°
2026-05-05 18:58 40.81041 31.68706 37096 ft 473 kts 129°
2026-05-05 18:58 40.76738 31.75294 37092 ft 474 kts 129°
2026-05-05 18:59 40.72435 31.81881 37072 ft 474 kts 129°
2026-05-05 18:59 40.68097 31.88504 37085 ft 474 kts 129°
2026-05-05 19:00 40.63789 31.95079 37077 ft 474 kts 129°
2026-05-05 19:00 40.59485 32.01636 37080 ft 474 kts 130°
2026-05-05 19:01 40.57321 32.04924 36579 ft 477 kts 129°
2026-05-05 19:01 40.55121 32.08259 35581 ft 486 kts 129°
2026-05-05 19:01 40.52894 32.11629 34721 ft 491 kts 129°
2026-05-05 19:01 40.50678 32.14977 33960 ft 493 kts 129°
2026-05-05 19:02 40.48439 32.18484 33079 ft 494 kts 124°
2026-05-05 19:02 40.46608 32.22216 32245 ft 491 kts 116°
2026-05-05 19:02 40.45111 32.26241 31394 ft 490 kts 112°
2026-05-05 19:02 40.43657 32.30283 30523 ft 491 kts 112°
2026-05-05 19:03 40.42191 32.34348 29465 ft 493 kts 112°
2026-05-05 19:03 40.40718 32.38420 28464 ft 493 kts 112°
2026-05-05 19:03 40.39250 32.42458 27534 ft 489 kts 112°
2026-05-05 19:03 40.37659 32.46374 26451 ft 485 kts 120°
2026-05-05 19:04 40.35719 32.49984 25413 ft 479 kts 123°
2026-05-05 19:04 40.33778 32.53514 24438 ft 472 kts 123°
2026-05-05 19:04 40.31866 32.56984 23456 ft 466 kts 123°
2026-05-05 19:04 40.29980 32.60407 22357 ft 460 kts 123°
2026-05-05 19:05 40.28129 32.63769 21342 ft 452 kts 124°
2026-05-05 19:05 40.26303 32.67082 20548 ft 441 kts 124°
2026-05-05 19:05 40.24587 32.70184 20383 ft 417 kts 124°
2026-05-05 19:05 40.22905 32.73216 20242 ft 395 kts 124°
2026-05-05 19:06 40.21325 32.76063 20136 ft 372 kts 123°
2026-05-05 19:06 40.20056 32.78841 19990 ft 342 kts 105°
2026-05-05 19:06 40.19760 32.81759 19860 ft 312 kts 79°
2026-05-05 19:06 40.20380 32.84356 19497 ft 293 kts 54°
2026-05-05 19:07 40.21704 32.86289 19001 ft 282 kts 33°
2026-05-05 19:07 40.22754 32.87278 18641 ft 281 kts 33°
2026-05-05 19:07 40.24341 32.88774 18099 ft 281 kts 33°
2026-05-05 19:07 40.26451 32.90779 17320 ft 279 kts 33°
2026-05-05 19:08 40.27488 32.91768 16945 ft 278 kts 34°
2026-05-05 19:08 40.29051 32.93261 16375 ft 277 kts 34°
2026-05-05 19:08 40.30607 32.94746 15837 ft 276 kts 34°
2026-05-05 19:08 40.32160 32.96226 15294 ft 275 kts 34°
2026-05-05 19:09 40.33705 32.97698 14762 ft 274 kts 34°
2026-05-05 19:09 40.35245 32.99170 14246 ft 274 kts 34°
2026-05-05 19:09 40.36780 33.00640 13729 ft 273 kts 35°
2026-05-05 19:09 40.38312 33.02106 13170 ft 271 kts 35°
2026-05-05 19:10 40.39828 33.03554 12667 ft 268 kts 35°
2026-05-05 19:10 40.41322 33.04989 12240 ft 264 kts 35°
2026-05-05 19:10 40.42793 33.06402 11851 ft 263 kts 35°
2026-05-05 19:10 40.44280 33.07829 11390 ft 269 kts 35°
2026-05-05 19:11 40.45789 33.09272 11165 ft 266 kts 35°
2026-05-05 19:11 40.47274 33.10698 10858 ft 265 kts 35°
2026-05-05 19:11 40.48806 33.12184 10457 ft 291 kts 35°
2026-05-05 19:11 40.50467 33.13790 10095 ft 296 kts 35°
2026-05-05 19:12 40.52126 33.15386 9724 ft 295 kts 35°
2026-05-05 19:12 40.53769 33.16961 9453 ft 290 kts 36°
2026-05-05 19:12 40.55374 33.18529 9189 ft 285 kts 39°
2026-05-05 19:12 40.56575 33.20561 8917 ft 282 kts 66°
2026-05-05 19:13 40.56936 33.23052 8653 ft 279 kts 93°
2026-05-05 19:13 40.56393 33.25469 8398 ft 277 kts 121°
2026-05-05 19:13 40.55071 33.27265 8131 ft 273 kts 149°
2026-05-05 19:13 40.53328 33.28008 7868 ft 259 kts 179°
2026-05-05 19:14 40.51618 33.27551 7610 ft 250 kts 208°
2026-05-05 19:14 40.50157 33.26386 7381 ft 249 kts 216°
2026-05-05 19:14 40.48728 33.25094 7435 ft 247 kts 216°
2026-05-05 19:14 40.47309 33.23787 7659 ft 252 kts 216°
2026-05-05 19:15 40.45879 33.22460 7649 ft 251 kts 217°
2026-05-05 19:15 40.44451 33.21134 7648 ft 250 kts 217°
2026-05-05 19:15 40.43028 33.19812 7529 ft 252 kts 216°
2026-05-05 19:15 40.41603 33.18488 7342 ft 249 kts 216°
2026-05-05 19:16 40.40187 33.17174 7174 ft 249 kts 217°
2026-05-05 19:16 40.38771 33.15863 6995 ft 248 kts 216°
2026-05-05 19:16 40.37395 33.14591 6831 ft 241 kts 217°
2026-05-05 19:16 40.36077 33.13379 6720 ft 233 kts 216°
2026-05-05 19:17 40.34740 33.12202 6597 ft 228 kts 208°
2026-05-05 19:17 40.33228 33.11661 6469 ft 228 kts 186°
2026-05-05 19:17 40.31640 33.11532 6353 ft 228 kts 182°
2026-05-05 19:17 40.30101 33.11474 6192 ft 223 kts 181°
2026-05-05 19:18 40.28543 33.11427 6088 ft 222 kts 181°
2026-05-05 19:18 40.27030 33.11383 6001 ft 206 kts 181°
2026-05-05 19:18 40.25664 33.11321 5936 ft 185 kts 188°
2026-05-05 19:18 40.24500 33.10802 5703 ft 174 kts 213°
2026-05-05 19:19 40.23533 33.09898 5475 ft 168 kts 218°
2026-05-05 19:19 40.22596 33.09004 5277 ft 160 kts 218°
2026-05-05 19:19 40.21709 33.08157 5063 ft 156 kts 217°
2026-05-05 19:19 40.20839 33.07324 4854 ft 153 kts 217°
2026-05-05 19:20 40.19994 33.06517 4636 ft 150 kts 218°
2026-05-05 19:20 40.19168 33.05727 4396 ft 146 kts 218°
2026-05-05 19:20 40.18382 33.04976 4216 ft 144 kts 218°
2026-05-05 19:20 40.17596 33.04225 4011 ft 142 kts 219°
2026-05-05 19:21 40.16799 33.03464 3825 ft 142 kts 218°
2026-05-05 19:21 40.16001 33.02702 3630 ft 142 kts 218°
2026-05-05 19:21 40.15206 33.01943 3444 ft 142 kts 219°
2026-05-05 19:21 40.14410 33.01186 3258 ft 142 kts 218°
2026-05-05 19:22 40.13638 33.00457 3136 ft 131 kts 218°
2026-05-05 19:22 40.13036 32.99871 3123 ft 87 kts 216°
2026-05-05 19:22 40.12673 32.99524 3122 ft 51 kts 215°
2026-05-05 19:22 40.12392 32.99251 3119 ft 51 kts 217°
2026-05-05 19:23 40.12226 32.99192 3118 ft 16 kts 178°
2026-05-05 19:23 40.12125 32.99191 3117 ft 15 kts 186°
2026-05-05 19:23 40.12014 32.99174 3115 ft 16 kts 193°
2026-05-05 19:23 40.11909 32.99102 3114 ft 17 kts 216°
2026-05-05 19:24 40.11812 32.99009 3113 ft 19 kts 216°
2026-05-05 19:24 40.11730 32.98931 3113 ft 12 kts 216°
2026-05-05 19:24 40.11662 32.98893 3113 ft 11 kts 160°
2026-05-05 19:24 40.11628 32.98935 3113 ft 6 kts 141°
2026-05-05 19:25 40.11585 32.98937 3113 ft 7 kts 205°
2026-05-05 19:25 40.11538 32.98890 3113 ft 10 kts 220°
2026-05-05 19:25 40.11488 32.98835 3113 ft 6 kts 218°
2026-05-05 19:25 40.11447 32.98837 3113 ft 7 kts 136°
2026-05-05 19:26 40.11433 32.98860 3113 ft 1 kts 130°
2026-05-05 19:26 40.11428 32.98867 3113 ft 1 kts 129°
2026-05-05 19:26 40.11425 32.98874 3113 ft 1 kts 128°
2026-05-05 19:26 40.11424 32.98874 3113 ft 0 kts 128°